Location: Deurze
(52.9838°N, 6.6090°E)
Time: 18:59:39
(UTC+00:00)

Cosmos 1140 Rocket - Pass Details

Date: 11 March 2026
Orbit: 739 x 762 km, 74.1° (Epoch: 20 April)

Event Time Altitude Azimuth Distance (km) Brightness Sun altitude
Rises 18:17:46 0° 170° (S) 3,203 6.6 -7.9°
Reaches altitude 10° 18:20:22 10° 160° (SSE) 2,285 5.7 -8.3°
Maximum altitude 18:24:47 29° 101° (E) 1,369 4.3 -9.0°
Drops below altitude 10° 18:29:15 10° 43° (NE) 2,307 5.6 -9.7°
Sets 18:31:52 0° 32° (NNE) 3,238 6.5 -10.0°
